Showing default

SHIYAN 27F, 63604

Orbit data source: Space-Track

SHIYAN 27F, 63604 is a payload satellite owned by CAST (CN) in SSO that was launched on Fri, 18 Apr 2025 UTC via a CHANG ZHENG 6A launch vehicle from the Taiyaun Space Center, China (TSC). Payload-class satellites include a variety of spacecraft equipped with specific instruments for various scientific and technological missions. These include communications satellites like Starlink; space stations such as the ISS; scientific satellites like the Hubble; Earth observation satellites from companies like Planet Labs, Umbra, and HawkEye 360; GPS; miniature CubeSats for education and research; and military/defense satellites.

Loading next visibility...
Identifier
63604, 2025-078F
Orbit
SSO
Country
Flag of CNCN / PRC
Related business
Manufacturer
CAST
Mission
Operational Defense Radar Imaging
Bus & Motor
SW27, Unknown motor
Mass
300 kg wet, ~300 kg dry
Launch date (UTC)
2025-04-18 (7 months ago)
Launch vehicle
CHANG ZHENG 6A
Launch site
Taiyaun Space Center, China (TSC)
Object type
Payload
Rocket body
Debris
Shape & HBR
Box + 1 Pan, 14.5 m
Radar Cross Section
13.200 m², Large (>1 m²)

Expand to show TLE details & history
Last TLE update: 10 hours ago

TLE from 10 hours ago
0 SHIYAN 27F
1 63604U 25078F   25309.96925884  .00000037  00000-0  11341-3 0  9994
2 63604  99.6937 315.5342 0000669  92.9032 267.2183 13.57222749 27250
Epoch: 2025-11-05T23:15Z
TLE epoch observation values (Epoch: 2025-11-05T23:15:43.963Z)
Latitude
-0.00003°
Longitude
-78.83328°
Altitude
1,048.622 km
Speed
7.328 km/s
True Right ascension
21h 02m 08s
True Declination
0° 00' 00"
Sunlit
Object was in daylight at epoch
Visualization orbit readout
Latitude
Unknown
Longitude
Unknown
Altitude
Unknown
Speed
Unknown
Apparent Right ascension
Unknown
Apparent Declination
Unknown
Sunlit
N/A
Visualization observer readout
Local Sidereal Time
04:49:53
Azimuth
Unknown
Elevation
Unknown
Doppler factor
Unknown
Orbital elements
Apogee altitude
1,043.59 km
Perigee altitude
1,042.597 km
Semi-major axis
7,421.231 km
Eccentricity
0.00007
Inclination
99.6937°
RAAN
315.5342°
Arg. of periapsis
92.9032°
True anomaly
267.21064°
Mean anomaly
267.2183°
Eccentric anomaly
267.21447°
Mean motion
3.39492 °/min
Orbital period
106.04 mins
BSTAR
0.00011341
Loading maneuver chart data...
Computing Atmospheric mass density...
Loading historical data...
Loading historical data...
Loading historical data...
Loading historical data...
Loading historical data...
Loading historical data...
Loading historical data...

Documentation

Showing up to 5 results
|